Weather History for Huntingburg, IN

Change the Weather History Date:

Saturday, March 16, 2013

  Actual Average Record
Temperature  
Mean Temperature 52 °F -  
Max Temperature 64 °F 51 °F 71 °F (2003)
Min Temperature 39 °F 33 °F 19 °F (1997)
Degree Days  
Heating Degree Days 14    
Growing Degree Days 2 (Base 50)    
Moisture  
Dew Point 43 °F    
Average Humidity 66    
Maximum Humidity 87    
Minimum Humidity 55    
Precipitation  
Precipitation 0.00 in - - ()
Sea Level Pressure  
Sea Level Pressure 29.84 in    
Wind  
Wind Speed 15 mph (WNW)    
Max Wind Speed 20 mph    
Max Gust Speed 29 mph    
Visibility 8 miles    
Events      
Averages and records for this station are not official NWS values.
T = Trace of Precipitation, MM = Missing Value Source: NWS Daily Summary

Daily Weather History Graph

Daily Weather History Graph

Search for Another Location

Airport:

Trip Planner

Search our weather history database for the weather conditions in past years. The results will help you decide how hot, cold, wet, or windy it might be!

Date:

Astronomy

Mar. 16, 2013 Rise Set
Actual Time 7:57 AM EDT 7:56 PM EDT
Civil Twilight 7:30 AM EDT 8:22 PM EDT
Nautical Twilight 7:00 AM EDT 8:53 PM EDT
Astronomical Twilight 6:29 AM EDT 9:24 PM EDT
Moon 10:30 AM EDT (3/16) 12:04 AM EDT (3/16)
Length of Visible Light 12h 51m
Length of Day
11h 59m
Waxing Crescent, 23% of the Moon is Illuminated
Mar 16
Waxing Crescent
Mar 19
First Quarter
Mar 27
Full
Apr 3
Last Quarter
Apr 10
New

Hourly Weather History & Observations

Time (EDT) Temp. Windchill Dew Point Humidity Pressure Visibility Wind Dir Wind Speed Gust Speed Precip Events Conditions
12:35 AM 62.6 °F - 46.4 °F 55% 29.72 in 10.0 mi SSW 17.3 mph 23.0 mph N/A   Partly Cloudy
12:55 AM 62.6 °F - 46.4 °F 55% 29.71 in 10.0 mi SSW 19.6 mph 25.3 mph N/A   Clear
1:55 AM 62.6 °F - 46.4 °F 55% 29.70 in 10.0 mi SSW 18.4 mph - N/A   Clear
2:35 AM 62.6 °F - 48.2 °F 59% 29.69 in 10.0 mi SW 18.4 mph 28.8 mph N/A   Clear
2:55 AM 62.6 °F - 48.2 °F 59% 29.70 in 10.0 mi SW 17.3 mph - N/A   Clear
3:35 AM 62.6 °F - 46.4 °F 55% 29.69 in 10.0 mi SW 16.1 mph 21.9 mph N/A   Clear
4:15 AM 62.6 °F - 46.4 °F 55% 29.68 in 10.0 mi SW 17.3 mph 25.3 mph N/A   Clear
4:35 AM 62.6 °F - 46.4 °F 55% 29.68 in 10.0 mi SW 16.1 mph 23.0 mph N/A   Clear
4:55 AM 60.8 °F - 46.4 °F 59% 29.68 in 10.0 mi SW 15.0 mph 21.9 mph N/A   Clear
5:15 AM 60.8 °F - 46.4 °F 59% 29.67 in 10.0 mi SW 15.0 mph - N/A   Clear
5:35 AM 60.8 °F - 46.4 °F 59% 29.68 in 10.0 mi SW 13.8 mph - N/A   Clear
5:55 AM 57.2 °F - 46.4 °F 67% 29.68 in 10.0 mi SW 12.7 mph - N/A   Clear
6:15 AM 59.0 °F - 46.4 °F 63% 29.68 in 10.0 mi SSW 13.8 mph - N/A   Clear
6:35 AM 57.2 °F - 46.4 °F 67% 29.69 in 10.0 mi SW 12.7 mph - N/A   Clear
6:55 AM 57.2 °F - 46.4 °F 67% 29.69 in 10.0 mi SSW 13.8 mph - N/A   Clear
7:35 AM 57.2 °F - 46.4 °F 67% 29.70 in 10.0 mi SSW 12.7 mph - N/A   Clear
7:55 AM 57.2 °F - 46.4 °F 67% 29.70 in 10.0 mi SW 10.4 mph - N/A   Clear
8:35 AM 57.2 °F - 46.4 °F 67% 29.71 in 10.0 mi SW 12.7 mph - N/A   Clear
8:55 AM 59.0 °F - 46.4 °F 63% 29.71 in 10.0 mi SW 12.7 mph - N/A   Clear
9:15 AM 60.8 °F - 46.4 °F 59% 29.72 in 10.0 mi SW 15.0 mph 19.6 mph N/A   Clear
9:55 AM 62.6 °F - 46.4 °F 55% 29.73 in 10.0 mi WSW 17.3 mph 23.0 mph N/A   Clear
10:15 AM 62.6 °F - 48.2 °F 59% 29.73 in 10.0 mi WSW 16.1 mph - N/A   Clear
11:15 AM 64.4 °F - 48.2 °F 56% 29.76 in 10.0 mi West 18.4 mph 24.2 mph N/A   Clear
11:35 AM 62.6 °F - 48.2 °F 59% 29.77 in 10.0 mi WNW 18.4 mph 24.2 mph N/A   Clear
11:55 AM 62.6 °F - 48.2 °F 59% 29.78 in 10.0 mi West 16.1 mph - N/A   Clear
12:15 PM 62.6 °F - 48.2 °F 59% 29.79 in 10.0 mi NW 15.0 mph 21.9 mph N/A   Clear
12:35 PM 62.6 °F - 48.2 °F 59% 29.80 in 10.0 mi NNW 16.1 mph 24.2 mph N/A   Clear
12:55 PM 62.6 °F - 46.4 °F 55% 29.83 in 10.0 mi NW 17.3 mph 21.9 mph N/A   Clear
1:15 PM 59.0 °F - 44.6 °F 59% 29.84 in 10.0 mi NW 13.8 mph 24.2 mph N/A   Clear
1:35 PM 57.2 °F - 44.6 °F 63% 29.85 in 10.0 mi NW 17.3 mph 23.0 mph N/A   Clear
1:55 PM 57.2 °F - 44.6 °F 63% 29.86 in 9.0 mi NW 17.3 mph 21.9 mph N/A   Clear
2:15 PM 55.4 °F - 44.6 °F 67% 29.87 in 9.0 mi NW 16.1 mph 21.9 mph N/A   Clear
2:35 PM 55.4 °F - 42.8 °F 63% 29.89 in 8.0 mi NW 16.1 mph 20.7 mph N/A   Clear
2:55 PM 55.4 °F - 42.8 °F 63% 29.90 in 8.0 mi NNW 17.3 mph 21.9 mph N/A   Clear
3:15 PM 53.6 °F - 42.8 °F 67% 29.90 in 5.0 mi NNW 13.8 mph 20.7 mph N/A   Clear
3:35 PM 53.6 °F - 42.8 °F 67% 29.89 in 7.0 mi NNW 10.4 mph 23.0 mph N/A   Clear
3:55 PM 53.6 °F - 41.0 °F 62% 29.89 in 7.0 mi NNW 13.8 mph 23.0 mph N/A   Clear
4:15 PM 53.6 °F - 41.0 °F 62% 29.90 in 6.0 mi NW 13.8 mph 21.9 mph N/A   Clear
4:35 PM 53.6 °F - 42.8 °F 67% 29.91 in 7.0 mi NW 13.8 mph - N/A   Partly Cloudy
4:55 PM 51.8 °F - 39.2 °F 62% 29.92 in 7.0 mi NNW 15.0 mph 20.7 mph N/A   Partly Cloudy
5:35 PM 50.0 °F - 37.4 °F 62% 29.93 in 7.0 mi NNW 12.7 mph 19.6 mph N/A   Partly Cloudy
5:55 PM 48.2 °F - 37.4 °F 66% 29.93 in 7.0 mi NNW 10.4 mph - N/A   Clear
6:15 PM 48.2 °F - 37.4 °F 66% 29.95 in 7.0 mi NNW 12.7 mph 18.4 mph N/A   Partly Cloudy
6:35 PM 48.2 °F - 37.4 °F 66% 29.94 in 6.0 mi NNW 12.7 mph 19.6 mph N/A   Mostly Cloudy
6:55 PM 46.4 °F 40.4 °F 37.4 °F 71% 29.95 in 5.0 mi NW 13.8 mph 18.4 mph N/A   Mostly Cloudy
7:15 PM 46.4 °F 41.5 °F 37.4 °F 71% 29.94 in 5.0 mi North 10.4 mph - N/A   Scattered Clouds
7:35 PM 46.4 °F 41.5 °F 37.4 °F 71% 29.95 in 5.0 mi NW 10.4 mph - N/A   Partly Cloudy
7:55 PM 44.6 °F 39.2 °F 37.4 °F 76% 29.98 in 5.0 mi NNW 10.4 mph - N/A   Mostly Cloudy
8:15 PM 44.6 °F 38.8 °F 35.6 °F 71% 30.00 in 5.0 mi NW 11.5 mph 18.4 mph N/A   Scattered Clouds
8:35 PM 44.6 °F 38.1 °F 35.6 °F 71% 30.01 in 5.0 mi NNW 13.8 mph - N/A   Mostly Cloudy
8:55 PM 42.8 °F 37.0 °F 35.6 °F 76% 30.01 in 7.0 mi NNW 10.4 mph - N/A   Overcast
9:15 PM 42.8 °F 37.5 °F 35.6 °F 76% 30.02 in 7.0 mi NNW 9.2 mph - N/A   Mostly Cloudy
9:55 PM 41.0 °F 35.8 °F 35.6 °F 81% 30.01 in 6.0 mi North 8.1 mph - N/A   Partly Cloudy
10:15 PM 41.0 °F 35.2 °F 35.6 °F 81% 30.01 in 7.0 mi North 9.2 mph - N/A   Partly Cloudy
10:35 PM 41.0 °F 35.2 °F 35.6 °F 81% 30.01 in 7.0 mi North 9.2 mph - N/A   Scattered Clouds
10:55 PM 39.2 °F 32.0 °F 35.6 °F 87% 30.01 in 5.0 mi North 11.5 mph 16.1 mph N/A   Overcast
11:15 PM 39.2 °F 33.0 °F 35.6 °F 87% 30.01 in 5.0 mi North 9.2 mph - N/A   Overcast
11:35 PM 39.2 °F 31.2 °F 35.6 °F 87% 30.00 in 7.0 mi NNE 13.8 mph - N/A   Overcast
11:55 PM 39.2 °F 33.6 °F 35.6 °F 87% 30.01 in 7.0 mi NNE 8.1 mph - N/A   Partly Cloudy